sat.trackr.live / text

‹ back to catalog

STARLINK-36034

NORAD 66609 · 2025-270X

PAYLOAD ACTIVE UNKNOWN

§ Identity

Operator
Country
US
Launch date
2025-11-22
Launch site
AFETR
Launch vehicle
Mass (kg)
RCS (m²)

Purposes: comms

External: N2YO · Heavens-Above · Gunter

§ Orbital elements

Epoch: 2026-05-24T22:40:08.032224Z

Period
94.27 min
Inclination
43.0006°
Eccentricity
0.0000219
Mean motion
15.27587677 rev/d
Perigee alt
482.9 km
Apogee alt
483.2 km
Semi-major
6,861.2 km
B*
5.7660e-4
RAAN
345.9081°
Arg perigee
173.8160°
Mean anomaly
186.2695°
Rev number
2,920

§ Raw data

STARLINK-360341 66609U 25270X   26144.94453741  .00015642  00000+0  57660-3 0  99912 66609  43.0006 345.9081 0000219 173.8160 186.2695 15.27587677 29205

JSON: /api/v1/satellites/66609 · /tle

For live sub-satellite position, see the globe view (requires WebGL).

§ Visibility from observer

Set your observer location to see the next 7 days of passes ≥ 10°. The values pass through the URL so the page stays shareable.

No JS? Fill the form by hand. The geolocation button needs JavaScript.